Location: Staunton
(38.1490°N, 79.0720°W)
Time: 16:20:32
(UTC-05:00)

ISS - Pass Details

Date: 22 January 2018
Orbit: 401 x 407 km, 51.6° (Epoch: 17 January)

Event Time Altitude Azimuth Distance (km) Brightness Sun altitude
Rises 19:17:03 0° 205° (SSW) 2,295 0.5 -21.3°
Reaches altitude 10° 19:19:18 10° 192° (SSW) 1,441 -0.8 -21.8°
Enters shadow 19:20:06 15° 183° (S) 1,175 -1.4 -21.9°
